TimeCST,TemperatureF,Dew PointF,Humidity,Sea Level PressureIn,VisibilityMPH,Wind Direction,Wind SpeedMPH,Gust SpeedMPH,PrecipitationIn,Events,Conditions,WindDirDegrees,DateUTC
12:15 AM,65.1,59.2,81,29.77,10.0,SSW,6.9,-,N/A,,Clear,210,2013-11-17 06:15:00
12:35 AM,64.4,59.2,83,29.77,10.0,SW,6.9,-,N/A,,Clear,220,2013-11-17 06:35:00
12:55 AM,63.5,58.6,84,29.77,10.0,SW,3.5,-,N/A,,Scattered Clouds,220,2013-11-17 06:55:00
1:15 AM,62.6,58.3,86,29.77,10.0,SW,4.6,-,N/A,,Scattered Clouds,220,2013-11-17 07:15:00
1:35 AM,61.9,58.1,87,29.77,10.0,SW,6.9,-,N/A,,Scattered Clouds,220,2013-11-17 07:35:00
1:55 AM,61.9,58.3,88,29.77,10.0,SW,5.8,-,N/A,,Scattered Clouds,230,2013-11-17 07:55:00
2:15 AM,63.0,58.5,85,29.77,10.0,SW,5.8,-,N/A,,Scattered Clouds,230,2013-11-17 08:15:00
2:35 AM,62.6,58.1,85,29.77,10.0,SW,3.5,-,N/A,,Clear,220,2013-11-17 08:35:00
2:55 AM,61.3,57.4,87,29.77,10.0,SSW,4.6,-,N/A,,Clear,200,2013-11-17 08:55:00
3:15 AM,62.6,58.1,85,29.77,10.0,SW,6.9,-,N/A,,Scattered Clouds,230,2013-11-17 09:15:00
3:35 AM,63.0,58.5,85,29.77,10.0,SW,6.9,-,N/A,,Scattered Clouds,220,2013-11-17 09:35:00
3:55 AM,63.5,58.6,84,29.77,10.0,SSW,6.9,-,N/A,,Scattered Clouds,210,2013-11-17 09:55:00
4:15 AM,62.8,58.5,86,29.77,10.0,SW,5.8,-,N/A,,Scattered Clouds,220,2013-11-17 10:15:00
4:35 AM,62.1,58.5,88,29.77,10.0,SSW,8.1,-,N/A,,Clear,210,2013-11-17 10:35:00
4:55 AM,61.9,58.5,89,29.78,10.0,WSW,4.6,-,N/A,,Scattered Clouds,250,2013-11-17 10:55:00
5:15 AM,60.8,57.9,90,29.80,10.0,NW,4.6,-,N/A,,Clear,310,2013-11-17 11:15:00
5:35 AM,59.4,56.5,90,29.80,10.0,SW,5.8,-,N/A,,Clear,220,2013-11-17 11:35:00
5:55 AM,60.3,58.3,93,29.80,10.0,WSW,4.6,-,N/A,,Clear,250,2013-11-17 11:55:00
6:15 AM,61.2,57.7,88,29.81,10.0,WSW,5.8,-,N/A,,Clear,250,2013-11-17 12:15:00
6:35 AM,61.3,57.7,88,29.82,10.0,West,5.8,-,N/A,,Clear,270,2013-11-17 12:35:00
6:55 AM,61.2,57.7,88,29.82,10.0,WSW,8.1,-,N/A,,Clear,240,2013-11-17 12:55:00
7:15 AM,61.7,58.1,88,29.83,10.0,WSW,8.1,-,N/A,,Clear,250,2013-11-17 13:15:00
7:35 AM,63.9,58.5,83,29.84,10.0,West,9.2,-,N/A,,Clear,260,2013-11-17 13:35:00
7:55 AM,64.9,58.1,78,29.85,10.0,West,11.5,-,N/A,,Clear,270,2013-11-17 13:55:00
8:15 AM,65.5,58.1,77,29.86,10.0,West,10.4,17.3,N/A,,Clear,270,2013-11-17 14:15:00
8:35 AM,66.7,57.7,73,29.87,10.0,West,15.0,19.6,N/A,,Clear,270,2013-11-17 14:35:00
8:55 AM,68.2,57.0,67,29.87,10.0,West,12.7,18.4,N/A,,Clear,280,2013-11-17 14:55:00
9:15 AM,70.7,55.4,58,29.88,10.0,West,13.8,-,N/A,,Clear,280,2013-11-17 15:15:00
9:35 AM,72.3,52.9,50,29.89,10.0,West,16.1,23.0,N/A,,Clear,280,2013-11-17 15:35:00
9:55 AM,74.3,50.7,43,29.89,10.0,WNW,15.0,21.9,N/A,,Clear,290,2013-11-17 15:55:00
10:15 AM,75.9,49.5,39,29.90,10.0,West,16.1,20.7,N/A,,Clear,270,2013-11-17 16:15:00
10:35 AM,77.0,48.9,37,29.90,10.0,West,15.0,18.4,N/A,,Clear,270,2013-11-17 16:35:00
10:55 AM,78.6,47.3,33,29.91,10.0,West,13.8,21.9,N/A,,Clear,270,2013-11-17 16:55:00
11:15 AM,79.3,46.0,31,29.91,10.0,West,15.0,21.9,N/A,,Clear,260,2013-11-17 17:15:00
11:35 AM,79.7,44.6,29,29.91,10.0,West,17.3,25.3,N/A,,Clear,280,2013-11-17 17:35:00
11:55 AM,80.2,44.8,29,29.90,10.0,WNW,15.0,23.0,N/A,,Clear,290,2013-11-17 17:55:00
12:15 PM,81.5,45.3,28,29.89,10.0,NW,15.0,18.4,N/A,,Clear,310,2013-11-17 18:15:00
12:35 PM,82.0,41.7,24,29.88,10.0,WNW,15.0,19.6,N/A,,Clear,300,2013-11-17 18:35:00
12:55 PM,82.8,37.9,20,29.87,10.0,NW,15.0,21.9,N/A,,Clear,320,2013-11-17 18:55:00
1:15 PM,83.3,37.9,20,29.87,10.0,WNW,13.8,21.9,N/A,,Clear,300,2013-11-17 19:15:00
1:35 PM,84.2,36.9,18,29.87,10.0,West,16.1,19.6,N/A,,Clear,280,2013-11-17 19:35:00
1:55 PM,84.2,34.9,17,29.87,10.0,West,11.5,17.3,N/A,,Clear,280,2013-11-17 19:55:00
2:15 PM,84.0,34.0,17,29.86,10.0,West,10.4,21.9,N/A,,Clear,270,2013-11-17 20:15:00
2:35 PM,84.2,34.0,17,29.87,10.0,WNW,11.5,17.3,N/A,,Clear,290,2013-11-17 20:35:00
2:55 PM,84.2,34.5,17,29.87,10.0,WNW,13.8,20.7,N/A,,Clear,300,2013-11-17 20:55:00
3:15 PM,84.0,33.3,16,29.87,10.0,West,12.7,16.1,N/A,,Clear,280,2013-11-17 21:15:00
3:35 PM,83.5,34.3,17,29.87,10.0,WNW,10.4,-,N/A,,Clear,290,2013-11-17 21:35:00
3:55 PM,83.3,33.6,17,29.88,10.0,WNW,6.9,-,N/A,,Clear,300,2013-11-17 21:55:00
4:15 PM,82.9,34.0,17,29.88,10.0,West,9.2,-,N/A,,Clear,280,2013-11-17 22:15:00
4:35 PM,82.2,34.2,18,29.89,10.0,NW,4.6,-,N/A,,Clear,310,2013-11-17 22:35:00
4:55 PM,81.0,34.0,18,29.89,10.0,WNW,6.9,-,N/A,,Clear,290,2013-11-17 22:55:00
5:15 PM,79.2,34.2,20,29.90,10.0,WNW,3.5,-,N/A,,Clear,300,2013-11-17 23:15:00
5:35 PM,77.0,34.3,21,29.91,10.0,West,3.5,-,N/A,,Clear,270,2013-11-17 23:35:00
5:55 PM,74.3,34.9,24,29.91,10.0,West,3.5,-,N/A,,Clear,270,2013-11-17 23:55:00
6:15 PM,72.0,35.8,27,29.92,10.0,West,3.5,-,N/A,,Clear,280,2013-11-18 00:15:00
6:35 PM,69.1,36.3,30,29.93,10.0,WNW,4.6,-,N/A,,Clear,300,2013-11-18 00:35:00
6:55 PM,64.4,38.3,38,29.94,10.0,West,4.6,-,N/A,,Clear,280,2013-11-18 00:55:00
7:15 PM,66.0,37.2,35,29.95,10.0,WNW,5.8,-,N/A,,Clear,290,2013-11-18 01:15:00
7:35 PM,64.4,37.8,37,29.95,10.0,West,6.9,-,N/A,,Clear,270,2013-11-18 01:35:00
7:55 PM,64.0,38.3,39,29.96,10.0,West,6.9,-,N/A,,Clear,280,2013-11-18 01:55:00
8:15 PM,61.2,38.1,42,29.96,10.0,West,4.6,-,N/A,,Clear,280,2013-11-18 02:15:00
8:35 PM,61.9,38.3,42,29.97,10.0,West,5.8,-,N/A,,Clear,280,2013-11-18 02:35:00
8:55 PM,59.5,38.3,45,29.98,10.0,West,5.8,-,N/A,,Clear,280,2013-11-18 02:55:00
9:15 PM,58.1,39.2,49,29.98,10.0,West,8.1,-,N/A,,Clear,280,2013-11-18 03:15:00
9:35 PM,58.1,39.2,49,29.99,10.0,West,8.1,-,N/A,,Clear,280,2013-11-18 03:35:00
9:55 PM,56.7,39.2,52,29.99,10.0,Calm,Calm,-,N/A,,Clear,0,2013-11-18 03:55:00
10:15 PM,55.6,39.6,55,30.00,10.0,WNW,4.6,-,N/A,,Clear,290,2013-11-18 04:15:00
10:35 PM,56.7,38.8,51,30.00,10.0,NW,3.5,-,N/A,,Clear,310,2013-11-18 04:35:00
10:55 PM,55.9,38.3,52,30.00,10.0,Calm,Calm,-,N/A,,Clear,0,2013-11-18 04:55:00
11:15 PM,54.5,38.7,55,30.01,10.0,WNW,5.8,-,N/A,,Clear,290,2013-11-18 05:15:00
11:35 PM,54.0,38.3,55,30.02,10.0,NNE,6.9,18.4,N/A,,Clear,20,2013-11-18 05:35:00
11:55 PM,53.4,38.8,58,30.02,10.0,North,5.8,-,N/A,,Clear,350,2013-11-18 05:55:00